Location: Slave Lake
(55.2830°N, 114.7830°W)
Time: 11:24:14
(UTC-07:00)

Amateur Radio Satellites - All Passes

Search period start: 24 November 2017 10:54
Search period end: 25 November 2017 10:54
Location: Slave Lake, 55.2830°N, 114.7830°W

Satellite Date Start Highest point End Downlink Frequencies (MHz)
Time Altitude Azimuth
EO-79 24 Nov 11:01:15 11:05:21 50° 68° (ENE) 11:09:27 145.935-145.965
NANOSAT C BR1 24 Nov 11:02:04 11:06:06 46° 67° (ENE) 11:10:08 145.865
AO-85 24 Nov 11:04:25 11:08:51 62° 37° (NE) 11:13:39 145.980
AO-91 24 Nov 11:10:53 11:14:09 17° 50° (NE) 11:17:20 145.960
POLYITAN 1 24 Nov 11:17:29 11:21:42 69° 70° (ENE) 11:25:55 437.675
Oscar 19 24 Nov 11:18:33 11:22:06 19° 50° (NE) 11:25:40 437.125/150
BEESAT 2 24 Nov 11:22:50 11:26:50 56° 230° (SW) 11:30:46 435.950
BUGSAT 1 24 Nov 11:28:11 11:31:33 24° 60° (ENE) 11:34:54 437.445
BEESAT 3 24 Nov 11:40:57 11:43:33 17° 244° (WSW) 11:46:07 437.485
QB50P2 24 Nov 11:41:09 11:45:23 69° 257° (WSW) 11:49:37 145.880/145.840
Oscar 11 24 Nov 11:43:41 11:44:58 11° 312° (NW) 11:46:14 .
ESTCUBE 1 24 Nov 11:50:37 11:54:53 38° 97° (E) 11:59:07 437.505/2401.250
PRISM 24 Nov 11:54:29 11:55:29 11° 276° (W) 11:56:30 437.425
YUBILEINY 24 Nov 11:57:16 11:58:10 10° 5° (N) 11:59:05 435.215
AIST 2D 24 Nov 12:00:35 12:03:01 18° 269° (W) 12:05:28 435.315
DELFI C3 24 Nov 12:03:10 12:05:56 18° 303° (WNW) 12:08:39 145.870
AO-7 24 Nov 12:08:59 12:15:16 25° 33° (NNE) 12:21:34 .
Gurwin Techsat 1B 24 Nov 12:11:39 12:16:22 33° 58° (ENE) 12:21:06 435.225
EO-88 24 Nov 12:12:08 12:14:55 21° 300° (WNW) 12:17:42 145.990 - 145.960
M-CUBED/EXP-1 PRIME 24 Nov 12:15:09 12:17:30 15° 43° (NE) 12:19:57 437.505
HO-68 24 Nov 12:21:35 12:23:48 12° 342° (NNW) 12:26:00 435.675
Max Valier Satellite 24 Nov 12:23:09 12:25:05 14° 305° (NW) 12:27:01 145.860
LO-87 24 Nov 12:23:54 12:27:28 75° 287° (WNW) 12:31:00 145.935 - 145.965
SPROUT 24 Nov 12:23:58 12:27:26 24° 92° (E) 12:30:52 437.525
DUCHIFAT 1 24 Nov 12:25:09 12:29:05 37° 263° (W) 12:33:01 145.980
EO-79 24 Nov 12:37:51 12:41:21 25° 267° (W) 12:44:51 145.935-145.965
NANOSAT C BR1 24 Nov 12:38:24 12:42:00 27° 267° (W) 12:45:35 145.865
AO-91 24 Nov 12:44:24 12:49:45 63° 70° (ENE) 12:54:56 145.960
AO-85 24 Nov 12:45:00 12:49:08 34° 237° (WSW) 12:53:33 145.980
POLYITAN 1 24 Nov 12:54:58 12:57:56 18° 271° (W) 13:00:53 437.675
Oscar 19 24 Nov 12:55:37 13:00:44 80° 71° (ENE) 13:05:54 437.125/150
BUGSAT 1 24 Nov 13:02:35 13:06:40 53° 259° (W) 13:10:44 437.445
BEESAT 2 24 Nov 13:03:11 13:03:42 10° 250° (WSW) 13:04:12 435.950
ITAMSAT 1 24 Nov 13:19:21 13:22:45 18° 48° (NE) 13:26:11 435.822/435.867
QB50P2 24 Nov 13:21:05 13:21:59 11° 277° (W) 13:22:54 145.880/145.840
O/OREOS (USA 219) 24 Nov 13:26:46 13:31:09 46° 113° (ESE) 13:35:34 437.305
ESTCUBE 1 24 Nov 13:27:30 13:31:40 36° 297° (WNW) 13:35:50 437.505/2401.250
VELOX 1 24 Nov 13:30:57 13:35:24 60° 102° (ESE) 13:39:47 145.980
M-CUBED/EXP-1 PRIME 24 Nov 13:47:22 13:51:10 73° 64° (ENE) 13:55:19 437.505
Gurwin Techsat 1B 24 Nov 13:50:55 13:56:08 55° 259° (W) 14:01:24 435.225
YUBILEINY 24 Nov 13:53:58 13:59:58 19° 39° (NE) 14:05:56 435.215
AO-7 24 Nov 13:58:31 14:06:36 60° 58° (ENE) 14:14:45 .
LO-87 24 Nov 13:59:06 14:00:14 11° 307° (NW) 14:01:21 145.935 - 145.965
SPROUT 24 Nov 13:59:27 14:03:37 52° 292° (WNW) 14:07:44 437.525
DX 1 24 Nov 14:04:33 14:08:36 35° 97° (E) 14:12:37 434.975-435.025
DOVE 4 24 Nov 14:06:24 14:07:26 11° 41° (NE) 14:08:29 437.250
AO-91 24 Nov 14:21:51 14:26:30 28° 269° (W) 14:31:03 145.960
Oscar 19 24 Nov 14:36:57 14:40:42 20° 272° (W) 14:44:29 437.125/150
50 SAT 24 Nov 14:37:38 14:40:54 84° 105° (ESE) 14:44:06 437.505
NO-84 24 Nov 14:37:47 14:40:14 17° 135° (SE) 14:42:47 435.350 FM
UKube-1 24 Nov 14:38:27 14:42:40 46° 100° (E) 14:46:50 .
ITAMSAT 1 24 Nov 14:56:13 15:01:25 70° 69° (ENE) 15:06:39 435.822/435.867
O/OREOS (USA 219) 24 Nov 15:06:25 15:10:43 37° 314° (NW) 15:15:00 437.305
VELOX 1 24 Nov 15:07:54 15:11:32 25° 302° (WNW) 15:15:08 145.980
MOZHAYETS 4 24 Nov 15:13:15 15:17:09 27° 93° (E) 15:21:00
CUTE-I 24 Nov 15:20:36 15:22:30 12° 40° (NE) 15:24:24 437.470
M-CUBED/EXP-1 PRIME 24 Nov 15:23:40 15:26:08 16° 266° (W) 15:28:44 437.505
BEESAT 24 Nov 15:24:51 15:28:51 26° 93° (E) 15:32:48 436.000
CUBESAT XI-V 24 Nov 15:35:53 15:38:19 14° 84° (E) 15:40:45 437.345
Gurwin Techsat 1B 24 Nov 15:36:03 15:37:19 11° 280° (W) 15:38:35 435.225
ITUPSAT 1 24 Nov 15:37:03 15:41:19 31° 95° (E) 15:45:33 437.325
SPROUT 24 Nov 15:37:28 15:38:36 11° 312° (NW) 15:39:44 437.525
DOVE 4 24 Nov 15:38:58 15:43:45 37° 62° (ENE) 15:48:38 437.250
DX 1 24 Nov 15:40:46 15:44:50 38° 296° (WNW) 15:48:52 434.975-435.025
HO-68 24 Nov 15:48:55 15:53:32 19° 35° (NE) 15:58:10 435.675
YUBILEINY 24 Nov 15:50:41 15:59:21 53° 67° (ENE) 16:07:56 435.215
AO-7 24 Nov 15:51:48 15:59:41 47° 260° (W) 16:07:40 .
XW-2D 24 Nov 15:51:59 15:52:38 10° 51° (NE) 15:53:18 145.860 - 145.880
XW-2B 24 Nov 16:05:41 16:07:28 13° 54° (NE) 16:09:15 145.730 - 145.750
50 SAT 24 Nov 16:11:10 16:12:27 12° 304° (NW) 16:13:44 437.505
NO-84 24 Nov 16:13:08 16:16:52 53° 156° (SSE) 16:20:52 435.350 FM
UKube-1 24 Nov 16:14:47 16:18:32 29° 300° (WNW) 16:22:16 .
RS-15 24 Nov 16:30:07 16:35:35 14° 89° (E) 16:41:00 29.354- 29.394
XW-2C 24 Nov 16:30:15 16:33:04 21° 60° (ENE) 16:35:55 145.795 - 145.815
LilacSat-2 24 Nov 16:36:51 16:39:57 24° 62° (ENE) 16:43:04 437.200
XW-2F 24 Nov 16:37:06 16:40:01 22° 61° (ENE) 16:42:58 145.980 - 146.000
ITAMSAT 1 24 Nov 16:37:11 16:41:24 24° 269° (W) 16:45:37 435.822/435.867
KKS-1 24 Nov 16:38:23 16:40:14 12° 84° (E) 16:42:06 437.445
O/OREOS (USA 219) 24 Nov 16:49:06 16:51:28 14° 338° (NNW) 16:53:49 437.305
MOZHAYETS 4 24 Nov 16:50:07 16:54:34 52° 292° (WNW) 16:59:01
CUTE-I 24 Nov 16:56:16 17:01:17 41° 61° (ENE) 17:06:19 437.470
KAITUO 1B 24 Nov 16:57:48 17:00:57 27° 63° (ENE) 17:04:07 145.475/437.950
BEESAT 24 Nov 17:02:16 17:06:57 57° 293° (WNW) 17:11:37 436.000
CUBESAT XI-V 24 Nov 17:11:45 17:16:29 78° 104° (ESE) 17:21:12 437.345
ITUPSAT 1 24 Nov 17:14:45 17:19:20 47° 295° (WNW) 17:23:53 437.325
DOVE 4 24 Nov 17:16:18 17:21:20 48° 263° (W) 17:26:29 437.250
UWE-3 24 Nov 17:17:57 17:18:11 10° 48° (NE) 17:18:26 435.000/436.395/437.385
XW-2D 24 Nov 17:22:21 17:26:03 61° 71° (ENE) 17:29:47 145.860 - 145.880
HO-68 24 Nov 17:32:56 17:39:47 50° 58° (ENE) 17:46:41 435.675
NUDT-PHONESAT 24 Nov 17:34:54 17:38:29 57° 71° (ENE) 17:42:06 437.300
XW-2B 24 Nov 17:37:17 17:41:01 82° 76° (ENE) 17:44:49 145.730 - 145.750
YUBILEINY 24 Nov 17:47:48 17:56:14 51° 272° (W) 18:04:38 435.215
NO-84 24 Nov 17:50:08 17:54:07 88° 186° (S) 17:58:20 435.350 FM
AO-7 24 Nov 17:52:22 17:54:52 11° 285° (WNW) 17:57:24 .
XW-2A 24 Nov 17:57:20 17:58:54 13° 56° (ENE) 18:00:29 145.665 - 145.685
CUTE 1.7 + AOD 2 24 Nov 17:59:57 18:03:56 42° 67° (ENE) 18:07:57 437.475
CUBEBUG 2 24 Nov 18:01:31 18:05:28 31° 63° (ENE) 18:09:18 437.445
XW-2C 24 Nov 18:03:18 18:06:58 54° 259° (W) 18:10:41 145.795 - 145.815
XW-2F 24 Nov 18:10:17 18:13:53 48° 260° (W) 18:17:33 145.980 - 146.000
LilacSat-2 24 Nov 18:10:27 18:14:03 43° 261° (W) 18:17:42 437.200
KKS-1 24 Nov 18:13:07 18:17:37 74° 105° (ESE) 18:22:04 437.445
AAUSAT CUBESAT 2 24 Nov 18:17:53 18:21:10 23° 59° (ENE) 18:24:29 437.432
SEEDS 24 Nov 18:22:32 18:26:31 45° 67° (ENE) 18:30:34 437.485
STARS 24 Nov 18:25:58 18:30:14 46° 100° (E) 18:34:27 437.465
MOZHAYETS 4 24 Nov 18:29:07 18:30:47 12° 313° (NW) 18:32:27
KAITUO 1B 24 Nov 18:31:23 18:34:49 37° 263° (W) 18:38:19 145.475/437.950
ZACube-1 24 Nov 18:31:50 18:35:06 22° 59° (ENE) 18:38:21 437.345
RS-15 24 Nov 18:33:15 18:44:46 49° 115° (ESE) 18:56:09 29.354- 29.394
CUTE-I 24 Nov 18:36:13 18:41:20 44° 262° (W) 18:46:30 437.470
BEESAT 24 Nov 18:41:31 18:43:49 14° 314° (NW) 18:46:09 436.000
UWE-3 24 Nov 18:49:33 18:53:45 48° 68° (ENE) 18:57:51 435.000/436.395/437.385
CUBESAT XI-V 24 Nov 18:49:52 18:53:22 21° 305° (NW) 18:56:54 437.345
ITUPSAT 1 24 Nov 18:54:28 18:56:08 12° 316° (NW) 18:57:47 437.325
XW-2D 24 Nov 18:58:06 19:00:36 17° 271° (W) 19:03:07 145.860 - 145.880
NUDT-PHONESAT 24 Nov 19:10:11 19:12:40 17° 270° (W) 19:15:11 437.300
FO-29 24 Nov 19:11:31 19:15:15 14° 73° (ENE) 19:18:55 435.910
XW-2B 24 Nov 19:13:59 19:15:46 13° 274° (W) 19:17:32 145.730 - 145.750
AO-73 24 Nov 19:19:20 19:23:23 46° 68° (ENE) 19:27:23 145.935
HO-68 24 Nov 19:20:38 19:27:36 50° 260° (W) 19:34:37 435.675
NO-84 24 Nov 19:27:24 19:31:28 66° 198° (SSW) 19:35:42 435.350 FM
XW-2A 24 Nov 19:27:47 19:31:06 80° 254° (WSW) 19:34:28 145.665 - 145.685
Oscar 11 24 Nov 19:31:05 19:35:09 44° 67° (ENE) 19:39:16 .
CUTE 1.7 + AOD 2 24 Nov 19:36:15 19:39:55 28° 267° (W) 19:43:37 437.475
CUBEBUG 2 24 Nov 19:37:43 19:42:00 43° 262° (W) 19:46:11 437.445
STRAND 1 24 Nov 19:43:02 19:47:46 36° 96° (E) 19:52:27 437.568
DELFI C3 24 Nov 19:46:13 19:48:57 18° 57° (ENE) 19:51:41 145.870
YUBILEINY 24 Nov 19:46:48 19:50:50 14° 296° (WNW) 19:54:54 435.215
KKS-1 24 Nov 19:50:22 19:53:44 21° 305° (NW) 19:57:04 437.445
EO-88 24 Nov 19:51:52 19:52:35 10° 52° (NE) 19:53:19 145.990 - 145.960
AAUSAT CUBESAT 2 24 Nov 19:52:14 19:56:19 57° 259° (W) 20:00:28 437.432
SEEDS 24 Nov 19:58:50 20:02:24 27° 267° (W) 20:06:00 437.485
Max Valier Satellite 24 Nov 20:01:18 20:03:36 16° 57° (ENE) 20:05:54 145.860
STARS 24 Nov 20:02:35 20:06:26 30° 300° (WNW) 20:10:15 437.465
ZACube-1 24 Nov 20:06:52 20:11:05 61° 259° (WSW) 20:15:15 437.345
O/OREOS (USA 219) 24 Nov 20:11:18 20:14:22 17° 30° (NNE) 20:17:26 437.305
UWE-3 24 Nov 20:26:46 20:30:25 26° 267° (W) 20:34:01 435.000/436.395/437.385
nSIGHT-1 24 Nov 20:30:36 20:32:30 15° 148° (SSE) 20:34:25 .
RS-15 24 Nov 20:44:20 20:56:46 80° 322° (NW) 21:08:55 29.354- 29.394
FO-29 24 Nov 20:54:34 21:02:16 51° 96° (E) 21:09:31 435.910
AO-73 24 Nov 20:56:17 20:59:50 26° 267° (W) 21:03:21 145.935
NO-84 24 Nov 21:04:55 21:08:25 26° 218° (SW) 21:11:59 435.350 FM
Oscar 11 24 Nov 21:07:43 21:11:27 28° 266° (W) 21:15:13 .
HO-68 24 Nov 21:14:35 21:17:12 12° 283° (WNW) 21:19:49 435.675
DELFI C3 24 Nov 21:19:15 21:23:14 74° 257° (WSW) 21:27:16 145.870
EO-88 24 Nov 21:21:55 21:25:31 65° 72° (ENE) 21:29:09 145.990 - 145.960
STRAND 1 24 Nov 21:22:12 21:27:05 46° 297° (WNW) 21:31:56 437.568
ESTCUBE 1 24 Nov 21:22:20 21:25:09 17° 52° (NE) 21:27:58 437.505/2401.250
ISS 24 Nov 21:26:56 21:29:40 25° 157° (SSE) 21:32:25 437.550
Max Valier Satellite 24 Nov 21:33:21 21:36:59 71° 257° (WSW) 21:40:39 145.860
LO-87 24 Nov 21:34:16 21:36:43 18° 59° (ENE) 21:39:10 145.935 - 145.965
SO-50 24 Nov 21:49:26 21:53:38 41° 126° (SE) 21:57:53 436.795
O/OREOS (USA 219) 24 Nov 21:50:15 21:54:47 57° 53° (NE) 21:59:16 437.305
PRISM 24 Nov 21:51:40 21:52:21 10° 84° (E) 21:53:03 437.425
nSIGHT-1 24 Nov 22:05:09 22:08:08 35° 167° (SSE) 22:11:07 .
UNISAT 6 24 Nov 22:06:50 22:10:48 35° 96° (E) 22:14:43 437.425
TIGRISAT 24 Nov 22:10:01 22:13:57 35° 96° (E) 22:17:51 435.000
FO-29 24 Nov 22:39:44 22:47:20 53° 299° (WNW) 22:54:36 435.910
ESTCUBE 1 24 Nov 22:56:48 23:01:18 81° 72° (ENE) 23:05:50 437.505/2401.250
EO-88 24 Nov 22:57:24 22:59:34 15° 271° (W) 23:01:46 145.990 - 145.960
DELFI C3 24 Nov 22:57:52 22:58:44 11° 276° (W) 22:59:36 145.870
RS-15 24 Nov 22:58:56 23:11:00 55° 353° (N) 23:22:38 29.354- 29.394
VELOX 1 24 Nov 22:59:43 23:03:14 23° 57° (ENE) 23:06:46 145.980
ISS 24 Nov 23:02:35 23:05:44 43° 176° (S) 23:08:52 437.550
STRAND 1 24 Nov 23:03:09 23:05:08 12° 318° (NW) 23:07:08 437.568
LO-87 24 Nov 23:06:12 23:09:46 60° 259° (WSW) 23:13:20 145.935 - 145.965
AIST 2D 24 Nov 23:17:02 23:19:54 23° 93° (E) 23:22:47 435.315
QB50P2 24 Nov 23:20:05 23:21:56 13° 85° (E) 23:23:46 145.880/145.840
SPROUT 24 Nov 23:23:37 23:27:42 44° 66° (ENE) 23:31:47 437.525
PRISM 24 Nov 23:24:16 23:28:27 68° 103° (ESE) 23:32:35 437.425
SO-50 24 Nov 23:29:39 23:34:03 52° 328° (NNW) 23:38:32 436.795
O/OREOS (USA 219) 24 Nov 23:30:07 23:33:55 26° 254° (WSW) 23:37:42 437.305
DX 1 24 Nov 23:32:53 23:35:27 15° 51° (NE) 23:38:02 434.975-435.025
PCSat 24 Nov 23:37:28 23:41:54 27° 113° (ESE) 23:46:23 145.827
nSIGHT-1 24 Nov 23:40:58 23:44:02 41° 186° (S) 23:47:04 .
50 SAT 24 Nov 23:41:25 23:42:31 11° 55° (NE) 23:43:39 437.505
UNISAT 6 24 Nov 23:43:37 23:47:33 35° 296° (WNW) 23:51:25 437.425
TIGRISAT 24 Nov 23:46:46 23:50:41 35° 296° (WNW) 23:54:33 435.000
DUCHIFAT 1 25 Nov 00:01:43 00:04:57 21° 91° (E) 00:08:09 145.980
UKube-1 25 Nov 00:05:17 00:08:17 19° 54° (NE) 00:11:19 .
EO-79 25 Nov 00:14:07 00:17:58 33° 96° (E) 00:21:45 145.935-145.965
NANOSAT C BR1 25 Nov 00:14:30 00:18:13 30° 95° (E) 00:21:55 145.865
FO-29 25 Nov 00:25:27 00:30:48 21° 322° (NW) 00:36:03 435.910
POLYITAN 1 25 Nov 00:30:33 00:34:37 45° 99° (E) 00:38:39 437.675
VELOX 1 25 Nov 00:34:54 00:39:19 65° 256° (WSW) 00:43:48 145.980
ESTCUBE 1 25 Nov 00:35:45 00:38:42 17° 273° (W) 00:41:40 437.505/2401.250
BUGSAT 1 25 Nov 00:38:02 00:40:09 14° 87° (E) 00:42:14 437.445
ISS 25 Nov 00:38:52 00:41:51 33° 196° (SSW) 00:44:50 437.550
MOZHAYETS 4 25 Nov 00:47:58 00:49:56 13° 48° (NE) 00:51:56
AIST 2D 25 Nov 00:49:54 00:53:13 38° 292° (WNW) 00:56:31 435.315
QB50P2 25 Nov 00:54:12 00:58:26 82° 104° (ESE) 01:02:38 145.880/145.840
SPROUT 25 Nov 01:00:03 01:03:45 28° 266° (W) 01:07:28 437.525
PRISM 25 Nov 01:00:13 01:03:19 20° 304° (WNW) 01:06:24 437.425
Oscar 19 25 Nov 01:00:37 01:03:55 17° 86° (E) 01:07:12 437.125/150
BEESAT 25 Nov 01:02:55 01:05:38 15° 48° (NE) 01:08:22 436.000
DX 1 25 Nov 01:06:35 01:10:58 76° 71° (ENE) 01:15:23 434.975-435.025
50 SAT 25 Nov 01:10:49 01:14:03 90° 165° (SSE) 01:17:19 437.505
SO-50 25 Nov 01:11:30 01:15:23 27° 351° (N) 01:19:20 436.795
RS-15 25 Nov 01:13:31 01:25:41 66° 26° (NNE) 01:37:13 29.354- 29.394
ITUPSAT 1 25 Nov 01:15:00 01:18:10 18° 51° (NE) 01:21:21 437.325
nSIGHT-1 25 Nov 01:17:17 01:19:47 21° 206° (SSW) 01:22:16 .
PCSat 25 Nov 01:19:24 01:24:50 79° 314° (NW) 01:30:19 145.827
DUCHIFAT 1 25 Nov 01:36:50 01:40:57 57° 291° (WNW) 01:45:02 145.980
BEESAT 3 25 Nov 01:37:24 01:39:13 13° 113° (ESE) 01:41:04 437.485
UKube-1 25 Nov 01:39:28 01:43:49 83° 256° (WSW) 01:48:11 .
EO-79 25 Nov 01:49:53 01:53:46 37° 296° (WNW) 01:57:37 145.935-145.965
NANOSAT C BR1 25 Nov 01:50:06 01:54:02 40° 295° (WNW) 01:57:56 145.865
Gurwin Techsat 1B 25 Nov 01:59:32 02:04:25 35° 95° (E) 02:09:15 435.225
AO-91 25 Nov 02:04:12 02:08:43 46° 98° (E) 02:12:44 145.960
POLYITAN 1 25 Nov 02:06:39 02:10:14 28° 299° (WNW) 02:13:48 437.675
BUGSAT 1 25 Nov 02:12:02 02:16:07 85° 283° (WNW) 02:20:07 437.445
FO-29 25 Nov 02:12:14 02:13:01 10° 346° (NNW) 02:13:49 435.910
VELOX 1 25 Nov 02:15:38 02:16:40 11° 277° (W) 02:17:43 145.980
ISS 25 Nov 02:16:10 02:17:39 13° 215° (SW) 02:19:08 437.550
MOZHAYETS 4 25 Nov 02:21:45 02:26:13 57° 69° (ENE) 02:30:42
QB50P2 25 Nov 02:30:52 02:33:43 18° 305° (NW) 02:36:33 145.880/145.840
BEESAT 25 Nov 02:37:53 02:42:37 66° 69° (ENE) 02:47:22 436.000
Oscar 19 25 Nov 02:38:49 02:44:02 84° 108° (ESE) 02:49:13 437.125/150
DX 1 25 Nov 02:44:42 02:47:40 18° 271° (W) 02:50:40 434.975-435.025
CUBESAT XI-V 25 Nov 02:45:27 02:49:28 30° 61° (ENE) 02:53:32 437.345
ITUPSAT 1 25 Nov 02:50:34 02:55:21 81° 72° (ENE) 03:00:09 437.325
M-CUBED/EXP-1 PRIME 25 Nov 02:52:51 02:56:15 20° 96° (E) 02:59:41 437.505
SO-50 25 Nov 02:52:57 02:57:00 30° 16° (NNE) 03:01:07 436.795
BEESAT 2 25 Nov 02:57:51 03:01:01 22° 119° (ESE) 03:04:13 435.950
ITAMSAT 1 25 Nov 03:03:00 03:05:44 14° 84° (E) 03:08:26 435.822/435.867
PCSat 25 Nov 03:04:11 03:09:01 31° 338° (NNW) 03:13:51 145.827
AO-85 25 Nov 03:08:27 03:09:58 12° 111° (ESE) 03:11:31 145.980
BEESAT 3 25 Nov 03:12:05 03:16:04 69° 132° (SE) 03:20:04 437.485
YUBILEINY 25 Nov 03:12:17 03:14:54 12° 61° (ENE) 03:17:32 435.215
DUCHIFAT 1 25 Nov 03:14:24 03:15:47 11° 311° (NW) 03:17:10 145.980
UKube-1 25 Nov 03:18:25 03:20:33 13° 274° (W) 03:22:40 .
RS-15 25 Nov 03:26:41 03:38:31 67° 236° (SW) 03:49:43 29.354- 29.394
Gurwin Techsat 1B 25 Nov 03:39:25 03:44:34 50° 296° (WNW) 03:49:41 435.225
AO-91 25 Nov 03:40:55 03:44:59 30° 300° (WNW) 03:48:41 145.960
KKS-1 25 Nov 03:42:14 03:46:06 29° 60° (ENE) 03:49:57 437.445
AO-7 25 Nov 03:44:14 03:52:05 42° 97° (E) 03:59:53 .
BUGSAT 1 25 Nov 03:48:33 03:50:52 15° 307° (NW) 03:53:10 437.445
STARS 25 Nov 03:54:35 03:57:44 19° 54° (NE) 04:00:53 437.465
MOZHAYETS 4 25 Nov 04:00:01 04:03:43 24° 269° (W) 04:07:27
BEESAT 25 Nov 04:17:05 04:20:49 23° 269° (W) 04:24:36 436.000
Oscar 19 25 Nov 04:18:52 04:22:49 23° 307° (NW) 04:26:47 437.125/150
CUBESAT XI-V 25 Nov 04:22:13 04:26:41 49° 261° (W) 04:31:13 437.345
M-CUBED/EXP-1 PRIME 25 Nov 04:26:31 04:31:04 77° 294° (WNW) 04:35:42 437.505
ITUPSAT 1 25 Nov 04:30:27 04:33:47 19° 272° (W) 04:37:07 437.325
SO-50 25 Nov 04:33:32 04:38:09 70° 39° (NE) 04:42:49 436.795
BEESAT 2 25 Nov 04:34:20 04:38:23 74° 319° (NW) 04:42:28 435.950
ITAMSAT 1 25 Nov 04:40:55 04:46:10 72° 105° (ESE) 04:51:21 435.822/435.867
AO-85 25 Nov 04:45:34 04:49:30 67° 133° (SE) 04:53:43 145.980
PCSat 25 Nov 04:49:35 04:53:58 24° 3° (N) 04:58:20 145.827
BEESAT 3 25 Nov 04:50:15 04:53:54 33° 334° (NNW) 04:57:34 437.485
YUBILEINY 25 Nov 05:01:06 05:09:13 45° 86° (E) 05:17:25 435.215
DOVE 4 25 Nov 05:07:47 05:12:32 34° 93° (E) 05:17:03 437.250
KKS-1 25 Nov 05:18:06 05:22:28 50° 260° (W) 05:26:52 437.445
Gurwin Techsat 1B 25 Nov 05:20:50 05:23:25 14° 317° (NW) 05:25:59 435.225
STRAND 1 25 Nov 05:28:30 05:32:30 23° 54° (NE) 05:36:31 437.568
STARS 25 Nov 05:29:08 05:33:35 82° 254° (WSW) 05:38:03 437.465
XW-2C 25 Nov 05:30:18 05:31:18 11° 85° (E) 05:32:18 145.795 - 145.815
FO-29 25 Nov 05:31:58 05:36:55 20° 37° (NE) 05:42:03 435.910
XW-2F 25 Nov 05:36:21 05:37:45 12° 86° (E) 05:39:09 145.980 - 146.000
AO-7 25 Nov 05:37:05 05:45:20 66° 300° (WNW) 05:53:35 .
LilacSat-2 25 Nov 05:37:10 05:39:11 14° 87° (E) 05:41:12 437.200
RS-15 25 Nov 05:40:16 05:48:34 23° 262° (W) 05:56:38 29.354- 29.394
KAITUO 1B 25 Nov 05:55:40 05:57:48 14° 88° (E) 05:59:57 145.475/437.950
M-CUBED/EXP-1 PRIME 25 Nov 06:01:45 06:04:50 18° 314° (NW) 06:07:58 437.505
BEESAT 2 25 Nov 06:13:12 06:16:41 27° 342° (NNW) 06:20:12 435.950
SO-50 25 Nov 06:14:22 06:18:19 28° 239° (WSW) 06:22:19 436.795
ITAMSAT 1 25 Nov 06:20:57 06:25:14 26° 305° (NW) 06:29:30 435.822/435.867
XW-2D 25 Nov 06:21:33 06:25:03 33° 96° (E) 06:28:32 145.860 - 145.880
AO-85 25 Nov 06:26:27 06:30:12 35° 336° (NNW) 06:34:14 145.980
BEESAT 3 25 Nov 06:29:21 06:32:27 21° 358° (N) 06:35:32 437.485
NUDT-PHONESAT 25 Nov 06:31:25 06:34:42 29° 95° (E) 06:37:59 437.300
PCSat 25 Nov 06:33:44 06:38:48 37° 29° (NNE) 06:43:50 145.827
XW-2B 25 Nov 06:36:27 06:40:08 44° 99° (E) 06:43:49 145.730 - 145.750
HO-68 25 Nov 06:40:12 06:45:59 25° 88° (E) 06:51:44 435.675
CUTE-I 25 Nov 06:45:18 06:50:28 44° 98° (E) 06:55:34 437.470
DOVE 4 25 Nov 06:45:22 06:50:23 48° 294° (WNW) 06:55:09 437.250
YUBILEINY 25 Nov 06:57:11 07:05:51 60° 290° (WNW) 07:14:37 435.215
XW-2C 25 Nov 07:02:18 07:06:09 81° 106° (ESE) 07:09:59 145.795 - 145.815
STRAND 1 25 Nov 07:06:01 07:11:11 81° 254° (WSW) 07:16:23 437.568
STARS 25 Nov 07:08:25 07:10:39 14° 274° (W) 07:12:53 437.465
XW-2F 25 Nov 07:08:38 07:12:28 87° 108° (ESE) 07:16:17 145.980 - 146.000
LilacSat-2 25 Nov 07:10:08 07:13:59 81° 287° (WNW) 07:17:51 437.200
CUTE 1.7 + AOD 2 25 Nov 07:12:57 07:16:48 31° 94° (E) 07:20:38 437.475
FO-29 25 Nov 07:13:24 07:20:19 51° 60° (ENE) 07:27:46 435.910
CUBEBUG 2 25 Nov 07:21:07 07:24:31 23° 92° (E) 07:27:53 437.445
AAUSAT CUBESAT 2 25 Nov 07:27:45 07:30:14 15° 87° (E) 07:32:42 437.432
KAITUO 1B 25 Nov 07:28:28 07:32:16 74° 286° (WNW) 07:36:02 145.475/437.950
AO-7 25 Nov 07:30:17 07:36:50 27° 325° (NW) 07:43:23 .
SEEDS 25 Nov 07:34:19 07:38:10 32° 95° (E) 07:42:02 437.485
UNISAT 6 25 Nov 07:38:03 07:40:34 15° 52° (NE) 07:43:04 437.425
TIGRISAT 25 Nov 07:41:08 07:43:37 15° 52° (NE) 07:46:04 435.000
ZACube-1 25 Nov 07:48:25 07:50:58 16° 87° (E) 07:53:32 437.345
BEESAT 2 25 Nov 07:52:19 07:55:32 22° 5° (N) 07:58:43 435.950
XW-2D 25 Nov 07:55:48 07:59:12 31° 295° (WNW) 08:02:36 145.860 - 145.880
NUDT-PHONESAT 25 Nov 08:05:13 08:08:35 34° 294° (WNW) 08:11:59 437.300
BEESAT 3 25 Nov 08:07:32 08:11:03 28° 21° (NNE) 08:14:32 437.485
UWE-3 25 Nov 08:07:52 08:11:45 37° 97° (E) 08:15:38 435.000/436.395/437.385
AO-85 25 Nov 08:08:14 08:11:42 24° 0° (N) 08:15:22 145.980
XW-2B 25 Nov 08:10:59 08:14:08 25° 298° (WNW) 08:17:17 145.730 - 145.750
XW-2A 25 Nov 08:14:39 08:17:49 37° 98° (E) 08:20:59 145.665 - 145.685
PCSat 25 Nov 08:17:13 08:22:40 77° 232° (SW) 08:28:05 145.827
DOVE 4 25 Nov 08:24:40 08:26:52 13° 316° (NW) 08:29:03 437.250
CUTE-I 25 Nov 08:25:30 08:30:31 40° 299° (WNW) 08:35:29 437.470
HO-68 25 Nov 08:27:25 08:34:41 90° 298° (WNW) 08:41:53 435.675
AO-73 25 Nov 08:35:41 08:39:32 35° 96° (E) 08:43:23 145.935
XW-2C 25 Nov 08:37:31 08:39:50 16° 304° (NW) 08:42:09 145.795 - 145.815
XW-2F 25 Nov 08:43:54 08:46:03 15° 304° (NW) 08:48:12 145.980 - 146.000
LilacSat-2 25 Nov 08:45:46 08:47:39 13° 306° (NW) 08:49:32 437.200
PRISM 25 Nov 08:46:05 08:49:15 21° 57° (ENE) 08:52:25 437.425
Oscar 11 25 Nov 08:46:44 08:50:42 33° 95° (E) 08:54:38 .
STRAND 1 25 Nov 08:48:04 08:51:13 16° 275° (W) 08:54:21 437.568
CUTE 1.7 + AOD 2 25 Nov 08:48:43 08:52:43 39° 294° (WNW) 08:56:43 437.475
CUBEBUG 2 25 Nov 08:57:22 09:01:25 50° 292° (WNW) 09:05:26 437.445
FO-29 25 Nov 08:58:26 09:05:22 52° 264° (W) 09:12:56 435.910
YUBILEINY 25 Nov 08:58:32 09:04:56 21° 318° (NW) 09:11:22 435.215
AAUSAT CUBESAT 2 25 Nov 09:02:02 09:06:16 83° 286° (WNW) 09:10:27 437.432
KAITUO 1B 25 Nov 09:04:03 09:05:35 12° 307° (NW) 09:07:06 145.475/437.950
SEEDS 25 Nov 09:09:59 09:13:55 38° 295° (WNW) 09:17:52 437.485
UNISAT 6 25 Nov 09:12:08 09:16:37 75° 73° (ENE) 09:21:02 437.425
TIGRISAT 25 Nov 09:15:10 09:19:38 74° 72° (ENE) 09:24:02 435.000
AO-7 25 Nov 09:22:34 09:26:58 16° 351° (N) 09:31:23 .
ZACube-1 25 Nov 09:23:39 09:27:49 77° 286° (WNW) 09:31:59 437.345
BEESAT 2 25 Nov 09:30:22 09:34:12 38° 28° (NNE) 09:37:59 435.950
EO-79 25 Nov 09:40:21 09:42:08 13° 50° (NE) 09:43:56 145.935-145.965
NANOSAT C BR1 25 Nov 09:40:46 09:42:12 12° 49° (NE) 09:43:38 145.865
UWE-3 25 Nov 09:44:29 09:48:11 32° 296° (WNW) 09:51:52 435.000/436.395/437.385
BEESAT 3 25 Nov 09:45:03 09:49:03 89° 25° (NNE) 09:53:00 437.485
XW-2A 25 Nov 09:47:40 09:50:22 23° 297° (WNW) 09:53:06 145.665 - 145.685
AO-85 25 Nov 09:49:08 09:53:11 35° 24° (NNE) 09:57:31 145.980
POLYITAN 1 25 Nov 09:56:02 09:58:38 16° 54° (NE) 10:01:13 437.675
AIST 2D 25 Nov 09:57:52 10:00:49 26° 64° (ENE) 10:03:47 435.315
PCSat 25 Nov 10:01:41 10:05:16 18° 253° (WSW) 10:08:51 145.827
CUTE-I 25 Nov 10:07:29 10:09:16 12° 321° (NW) 10:11:03 437.470
AO-73 25 Nov 10:12:02 10:15:46 33° 296° (WNW) 10:19:31 145.935
HO-68 25 Nov 10:15:42 10:21:43 30° 313° (NW) 10:27:43 435.675
EO-88 25 Nov 10:16:48 10:20:06 31° 96° (E) 10:23:23 145.990 - 145.960
QB50P2 25 Nov 10:18:39 10:22:07 25° 59° (ENE) 10:25:34 145.880/145.840
PRISM 25 Nov 10:20:02 10:24:09 64° 256° (WSW) 10:28:20 437.425
Oscar 11 25 Nov 10:22:52 10:26:54 38° 295° (WNW) 10:30:56 .
DELFI C3 25 Nov 10:23:16 10:27:17 67° 102° (ESE) 10:31:16 145.870
Max Valier Satellite 25 Nov 10:29:29 10:33:07 56° 101° (E) 10:36:45 145.860
AAUSAT CUBESAT 2 25 Nov 10:38:39 10:41:05 15° 306° (NW) 10:43:32 437.432
ESTCUBE 1 25 Nov 10:44:01 10:45:15 11° 82° (E) 10:46:30 437.505/2401.250
Oscar 19 25 Nov 10:48:29 10:50:45 13° 43° (NE) 10:53:00 437.125/150
